Location: Chavannes
(47.1090°N, 0.2226°W)
Time: 16:05:20
(UTC+00:00)

Timation 2 Rocket - Pass Details

Date: 16 October 2021
Orbit: 904 x 1077 km, 70.0° (Epoch: 07 December)

Event Time Altitude Azimuth Distance (km) Brightness Sun altitude
Rises 17:46:38 0° 331° (NNW) 3,883 7.5 -6.7°
Reaches altitude 10° 17:49:17 10° 332° (NNW) 2,924 6.8 -7.2°
Maximum altitude 17:56:14 86° 61° (ENE) 1,077 4.2 -8.4°
Drops below altitude 10° 18:02:59 10° 151° (SSE) 2,851 6.2 -9.5°
Sets 18:05:33 0° 152° (SSE) 3,779 6.8 -10.0°
